• In Portugal
  • List of Countries
  • For 7 days
  • Water Temperature
  • Satellite Maps
  • Weather Map
  • Weather Widgets
  • user-avatar
    Login

    Hourly Weather Boa Vista

    Today, 19 February, Monday

    Time Temperature Precipitation Wind Pressure Humidity
    00:00 +29°C° 0 mm 4 mps 752 mmHg 50%
    01:00 +28°C° 0 mm 4 mps 752 mmHg 53%
    02:00 +28°C° 0 mm 4 mps 752 mmHg 56%
    03:00 +27°C° 0 mm 4 mps 752 mmHg 57%
    04:00 +27°C° 0 mm 4 mps 752 mmHg 59%
    05:00 +26°C° 0 mm 4 mps 752 mmHg 60%
    06:00 +27°C° 0 mm 4 mps 753 mmHg 58%
    07:00 +27°C° 0 mm 5 mps 753 mmHg 57%
    08:00 +28°C° 0 mm 5 mps 754 mmHg 55%
    09:00 +30°C° 0 mm 5 mps 754 mmHg 49%
    10:00 +33°C° 0 mm 5 mps 754 mmHg 43%
    11:00 +35°C° 0 mm 5 mps 754 mmHg 37%
    12:00 +36°C° 0 mm 4 mps 753 mmHg 33%
    13:00 +37°C° 0 mm 4 mps 751 mmHg 30%
    14:00 +38°C° 0 mm 4 mps 750 mmHg 26%
    15:00 +38°C° 0 mm 4 mps 750 mmHg 25%
    16:00 +38°C° 0 mm 4 mps 749 mmHg 24%
    17:00 +38°C° 0 mm 4 mps 749 mmHg 23%
    18:00 +37°C° 0 mm 4 mps 749 mmHg 27%
    19:00 +35°C° 0 mm 4 mps 749 mmHg 32%
    20:00 +33°C° 0 mm 4 mps 750 mmHg 36%
    21:00 +32°C° 0 mm 4 mps 750 mmHg 40%
    22:00 +32°C° 0 mm 5 mps 751 mmHg 45%
    23:00 +30°C° 0 mm 5 mps 752 mmHg 49%

    Tomorrow, 20 February, Tuesday

    Time Temperature Precipitation Wind Pressure Humidity
    00:00 +29°C° 0 mm 5 mps 752 mmHg 52%
    01:00 +28°C° 0 mm 5 mps 752 mmHg 54%
    02:00 +27°C° 0 mm 4 mps 752 mmHg 57%
    03:00 +27°C° 0 mm 4 mps 752 mmHg 57%
    04:00 +27°C° 0 mm 4 mps 752 mmHg 57%
    05:00 +26°C° 0 mm 4 mps 752 mmHg 57%
    06:00 +27°C° 0 mm 4 mps 753 mmHg 55%
    07:00 +27°C° 0 mm 5 mps 753 mmHg 53%
    08:00 +28°C° 0 mm 5 mps 754 mmHg 51%
    09:00 +30°C° 0 mm 5 mps 754 mmHg 45%
    10:00 +33°C° 0 mm 5 mps 754 mmHg 39%
    11:00 +35°C° 0 mm 5 mps 754 mmHg 33%
    12:00 +36°C° 0 mm 4 mps 753 mmHg 30%
    13:00 +37°C° 0 mm 4 mps 751 mmHg 26%
    14:00 +38°C° 0 mm 4 mps 750 mmHg 23%
    15:00 +39°C° 0 mm 3 mps 750 mmHg 23%
    16:00 +39°C° 0 mm 3 mps 749 mmHg 22%
    17:00 +39°C° 0 mm 3 mps 749 mmHg 22%
    18:00 +37°C° 0 mm 3 mps 749 mmHg 25%
    19:00 +35°C° 0 mm 3 mps 750 mmHg 28%
    20:00 +33°C° 0 mm 3 mps 750 mmHg 32%
    21:00 +31°C° 0 mm 3 mps 751 mmHg 36%
    22:00 +32°C° 0 mm 4 mps 752 mmHg 40%
    23:00 +32°C° 0 mm 4 mps 752 mmHg 44%

    Day after tomorrow, 21 February, Wednesday

    Time Temperature Precipitation Wind Pressure Humidity
    00:00 +30°C° 0 mm 4 mps 752 mmHg 48%
    01:00 +29°C° 0 mm 4 mps 752 mmHg 52%
    02:00 +28°C° 0 mm 4 mps 752 mmHg 56%
    03:00 +28°C° 0 mm 4 mps 752 mmHg 58%
    04:00 +27°C° 0 mm 4 mps 752 mmHg 60%
    05:00 +27°C° 0 mm 4 mps 753 mmHg 63%
    06:00 +27°C° 0 mm 4 mps 753 mmHg 59%
    07:00 +28°C° 0 mm 5 mps 754 mmHg 55%
    08:00 +28°C° 0 mm 5 mps 754 mmHg 52%
    09:00 +30°C° 0 mm 5 mps 754 mmHg 45%
    10:00 +33°C° 0 mm 4 mps 754 mmHg 38%
    11:00 +35°C° 0 mm 4 mps 754 mmHg 31%
    12:00 +36°C° 0 mm 4 mps 753 mmHg 29%
    13:00 +37°C° 0 mm 3 mps 752 mmHg 28%
    14:00 +38°C° 0 mm 3 mps 751 mmHg 27%
    15:00 +38°C° 0 mm 2 mps 750 mmHg 27%
    16:00 +38°C° 0 mm 2 mps 750 mmHg 27%
    17:00 +38°C° 0 mm 2 mps 749 mmHg 27%
    18:00 +37°C° 0 mm 2 mps 750 mmHg 30%
    19:00 +35°C° 0 mm 3 mps 751 mmHg 33%
    20:00 +34°C° 0 mm 3 mps 751 mmHg 37%
    21:00 +33°C° 0 mm 3 mps 752 mmHg 40%
    22:00 +32°C° 0 mm 4 mps 752 mmHg 43%
    23:00 +32°C° 0 mm 4 mps 753 mmHg 46%

    22 February, Thursday

    Time Temperature Precipitation Wind Pressure Humidity
    00:00 +30°C° 0 mm 4 mps 753 mmHg 49%
    01:00 +29°C° 0 mm 4 mps 752 mmHg 52%
    02:00 +29°C° 0 mm 4 mps 752 mmHg 55%
    03:00 +28°C° 0 mm 4 mps 752 mmHg 57%
    04:00 +28°C° 0 mm 4 mps 752 mmHg 58%
    05:00 +27°C° 0 mm 4 mps 752 mmHg 60%
    06:00 +28°C° 0 mm 4 mps 753 mmHg 59%
    07:00 +28°C° 0 mm 4 mps 754 mmHg 58%
    08:00 +28°C° 0 mm 5 mps 754 mmHg 56%
    09:00 +30°C° 0 mm 5 mps 754 mmHg 50%
    10:00 +33°C° 0 mm 4 mps 754 mmHg 44%
    11:00 +35°C° 0 mm 4 mps 754 mmHg 38%
    12:00 +36°C° 0 mm 4 mps 753 mmHg 36%
    13:00 +37°C° 0 mm 4 mps 752 mmHg 34%
    14:00 +38°C° 0 mm 4 mps 751 mmHg 32%
    15:00 +37°C° 0 mm 3 mps 750 mmHg 32%
    16:00 +37°C° 0 mm 3 mps 750 mmHg 32%
    17:00 +37°C° 0 mm 3 mps 750 mmHg 32%
    18:00 +36°C° 0 mm 3 mps 750 mmHg 35%
    19:00 +35°C° 0 mm 2 mps 751 mmHg 38%
    20:00 +34°C° 0 mm 2 mps 751 mmHg 40%
    21:00 +33°C° 0 mm 3 mps 752 mmHg 45%
    22:00 +32°C° 0 mm 4 mps 752 mmHg 50%
    23:00 +30°C° 0 mm 5 mps 753 mmHg 54%

    23 February, Friday

    Time Temperature Precipitation Wind Pressure Humidity
    00:00 +30°C° 0 mm 5 mps 752 mmHg 55%
    01:00 +29°C° 0 mm 4 mps 752 mmHg 57%
    02:00 +28°C° 0 mm 4 mps 752 mmHg 58%
    03:00 +28°C° 0 mm 4 mps 752 mmHg 59%
    04:00 +27°C° 0 mm 3 mps 752 mmHg 60%
    05:00 +27°C° 0 mm 3 mps 752 mmHg 62%
    06:00 +28°C° 0 mm 3 mps 752 mmHg 59%
    07:00 +28°C° 0 mm 4 mps 753 mmHg 56%
    08:00 +29°C° 0 mm 4 mps 753 mmHg 54%
    09:00 +32°C° 0 mm 4 mps 753 mmHg 46%
    10:00 +34°C° 0 mm 4 mps 753 mmHg 38%
    11:00 +36°C° 0 mm 4 mps 753 mmHg 31%
    12:00 +37°C° 0 mm 4 mps 752 mmHg 29%
    13:00 +38°C° 0 mm 3 mps 751 mmHg 27%
    14:00 +39°C° 0 mm 3 mps 750 mmHg 25%
    15:00 +39°C° 0 mm 3 mps 749 mmHg 25%
    16:00 +39°C° 0 mm 3 mps 749 mmHg 25%
    17:00 +39°C° 0 mm 2 mps 748 mmHg 25%
    18:00 +37°C° 0 mm 3 mps 749 mmHg 28%
    19:00 +36°C° 0 mm 3 mps 749 mmHg 31%
    20:00 +35°C° 0 mm 3 mps 750 mmHg 33%
    21:00 +34°C° 0 mm 3 mps 750 mmHg 35%
    22:00 +33°C° 0 mm 4 mps 751 mmHg 37%
    23:00 +32°C° 0 mm 4 mps 752 mmHg 39%

    24 February, Saturday

    Time Temperature Precipitation Wind Pressure Humidity
    00:00 +32°C° 0 mm 4 mps 751 mmHg 43%
    01:00 +30°C° 0 mm 4 mps 751 mmHg 47%
    02:00 +29°C° 0 mm 4 mps 751 mmHg 51%
    03:00 +29°C° 0 mm 4 mps 751 mmHg 54%
    04:00 +28°C° 0 mm 4 mps 751 mmHg 57%
    05:00 +28°C° 0 mm 3 mps 751 mmHg 60%
    06:00 +28°C° 0 mm 4 mps 752 mmHg 60%
    07:00 +29°C° 0 mm 4 mps 752 mmHg 60%
    08:00 +29°C° 0 mm 4 mps 753 mmHg 59%
    09:00 +32°C° 0 mm 4 mps 753 mmHg 52%
    10:00 +34°C° 0 mm 4 mps 753 mmHg 45%
    11:00 +36°C° 0 mm 4 mps 753 mmHg 38%
    12:00 +37°C° 0 mm 4 mps 752 mmHg 34%
    13:00 +38°C° 0 mm 4 mps 751 mmHg 31%
    14:00 +39°C° 0 mm 3 mps 750 mmHg 28%
    15:00 +39°C° 0 mm 3 mps 749 mmHg 28%
    16:00 +39°C° 0 mm 3 mps 748 mmHg 28%
    17:00 +39°C° 0 mm 2 mps 748 mmHg 28%
    18:00 +37°C° 0 mm 2 mps 749 mmHg 32%
    19:00 +36°C° 0 mm 2 mps 749 mmHg 36%
    20:00 +34°C° 0 mm 2 mps 750 mmHg 40%
    21:00 +34°C° 0.2 mm 2 mps 750 mmHg 44%
    22:00 +33°C° 0.2 mm 3 mps 751 mmHg 49%
    23:00 +32°C° 0.2 mm 4 mps 751 mmHg 54%
    Show more